Weather in Yanglichi

Russia / Chuvash Republic     55°26′17″N   47°17′33″E
temp.,
°C
wind,
m/s
gust,
m/s
humid.,
%
clouds,
%
prec.,
mm/h
press.,
hPa
HPBL,
m
20 june, sun
sun2000:00+17w410945 0.0 1022172
03:00+16w46924 0.0 102298
06:00+19wnw36846 0.0 1022171
09:00+24wnw45715 0.0 1022507
12:00+27wnw44605 0.0 10221006
15:00+27nw34580 0.0 10221265
18:00+26nw24725 0.0 1021278
21:00+20w33895 0.0 102234
21 june, mon
mon2100:00+19wsw22905 0.0 102216
03:00+18wsw22920 0.0 102323
06:00+21wsw34844 0.0 1023152
09:00+25w34680 0.0 1023609
12:00+28w33550 0.0 10221435
15:00+28wnw34530 0.0 10221578
18:00+27nw24720 0.0 1021248
21:00+21w33831 0.0 102234
22 june, tue
tue2200:00+20w33851 0.0 102227
03:00+19w22901 0.0 102219
06:00+22w23825 0.0 1023134
09:00+26wnw226788 0.0 1022522
12:00+28wnw335998 0.0 10231202
15:00+29nnw23536 0.0 10221630
18:00+27nw34725 0.2 1021160
21:00+22wsw22820 0.2 102112
23 june, wed
wed2300:00+20w22870 0.0 102218
03:00+19w22900 0.0 102218
06:00+22w24820 0.0 1022150
09:00+27w34670 0.0 1021556
12:00+29nw34540 0.0 10211434
15:00+29nw45545 0.0 10201397
18:00+27wnw37715 0.0 1019314
21:00+23wnw511781 0.0 1019240
24 june, thu
thu2400:00+20wnw378530 0.0 1019116
03:00+20nw347735 0.0 101967
06:00+20wnw1286100 0.4 1019143
09:00+25nnw466513 0.4 1020568
12:00+28nnw34575 0.0 10191013
15:00+29n35575 0.0 10191485
18:00+30sse12630 0.0 1018182
21:00+23sw338274 0.1 101835